Regional Weather Roundup
Issued by NWS Raleigh/Durham, NC

Home | Current Version | Previous Version | Text Only | Print | Product List | Glossary On
Versions: 1 2 3 4 5 6 7 8 9 10 11 12 13 14 15 16 17 18 19 20 21 22 23 24 25 26 27
000
ASUS42 KRAH 201010
RWRRAH
NORTH CAROLINA WEATHER ROUNDUP
NATIONAL WEATHER SERVICE RALEIGH NC
500 AM EST MON NOV 20 2017

NOTE: "FAIR" INDICATES FEW OR NO CLOUDS BELOW 12,000 FEET WITH NO
SIGNIFICANT WEATHER AND/OR OBSTRUCTIONS TO VISIBILITY.

NCZ001-053-055-056-065-067-201100-
WESTERN NORTH CAROLINA

CITY           SKY/WX    TMP DP  RH WIND       PRES   REMARKS
ASHEVILLE      CLEAR     31  25  78 N12       30.17R WCI  22
JEFFERSON      CLEAR     26  20  77 CALM      30.08R
HICKORY        CLEAR     29  27  92 N6        30.15R WCI  23
RUTHERFORDTON  CLEAR     27  27  99 CALM      30.17R
MOUNT AIRY     CLEAR     36  22  58 CALM      30.16R
BOONE          CLEAR     27  21  78 NW13G20   30.10R WCI  16
$$

NCZ021-022-025-041-071-084-088-201100-
CENTRAL NORTH CAROLINA

CITY           SKY/WX    TMP DP  RH WIND       PRES   REMARKS
CHARLOTTE      CLEAR     30  29  96 CALM      30.17R
GREENSBORO     CLEAR     34  24  67 NW13      30.14R WCI  25
WINSTON-SALEM  CLEAR     35  22  58 NW5       30.16R WCI  31
RALEIGH-DURHAM CLEAR     31  27  85 CALM      30.16R
FORT BRAGG     CLEAR     31  28  90 CALM      30.16R
FAYETTEVILLE   CLEAR     36  27  69 CALM      30.17R
BURLINGTON     PTCLDY    28  25  88 CALM      30.16R
LAURINBURG     CLEAR     28  27  96 CALM      30.19R
$$

NCZ011-015-027-028-043-044-047-080-103-201100-
NORTHEASTERN NORTH CAROLINA

CITY           SKY/WX    TMP DP  RH WIND       PRES   REMARKS
ROCKY MT-WILSO CLEAR     34  28  79 W3        30.16R
GREENVILLE     CLEAR     32  30  93 CALM      30.16R
WASHINGTON     CLEAR     36  28  71 NW3       30.15R
ELIZABETH CITY CLEAR     36  29  75 W8        30.12R WCI  30
MANTEO         CLEAR     44  31  61 NW10      30.12R
CAPE HATTERAS  CLEAR     46  34  62 NW10G22   30.12R
$$

NCZ078-087-090-091-093-098-101-201100-
SOUTHEASTERN NORTH CAROLINA

CITY           SKY/WX    TMP DP  RH WIND       PRES   REMARKS
LUMBERTON      CLEAR     28  27  96 CALM      30.18R
GOLDSBORO      CLEAR     40  26  57 NW7       30.14R
KINSTON        CLEAR     31  28  90 CALM      30.16R
KENANSVILLE    CLEAR     28  27  93 CALM      30.16R
NEW BERN       CLEAR     35  29  78 NW5       30.16R WCI  31
CHERRY POINT   NOT AVBL
BEAUFORT       CLEAR     39  31  72 N6        30.14R WCI  35
JACKSONVILLE   NOT AVBL
WILMINGTON     CLEAR     34  32  92 CALM      30.17R
$$





USA.gov is the U.S. government's official web portal to all federal, state and local government web resources and services.